Wind_Speed
6 7 7 6 4 2 2 1 3 3 3 3 3 2 3 4 7 10 10 11 13 10 5 11 14 20 22 23 19 25 29 25 20 18 16 19 18 17 16 13 13 12 15 16 16
7 7 8 7 6 4 1 1 2 2 3 4 3 3 2 4 6 9 9 10 11 11 7 6 8 10 13 18 17 22 28 25 17 20 11 14 16 19 20 15 14 14 16 16 17
7 8 7 7 6 5 4 3 3 4 4 6 6 4 2 2 4 7 11 11 10 11 13 8 4 8 15 14 18 17 24 14 17 19 18 17 14 18 21 19 17 17 17 17 18
7 8 9 8 7 6 6 5 5 6 6 6 7 7 5 4 4 4 10 12 11 12 10 12 10 5 3 7 15 24 17 14 21 13 19 19 20 17 16 17 17 18 20 20 19
8 9 9 9 9 8 7 7 7 6 6 5 5 6 6 6 4 3 6 11 12 12 10 8 6 9 12 5 18 9 15 9 12 12 16 20 20 14 13 16 18 18 20 19 19
8 9 9 9 9 9 8 7 7 6 4 3 2 2 3 4 4 3 2 6 13 11 4 2 4 2 3 12 9 12 12 4 9 4 13 16 14 12 10 16 16 17 17 18 18
7 8 8 9 9 8 8 8 8 7 6 5 5 4 3 2 3 3 2 3 5 9 11 12 8 7 3 9 9 13 7 6 5 5 5 11 12 13 11 9 14 14 15 16 17
6 6 7 7 7 8 7 6 5 5 5 5 5 6 5 4 4 3 2 2 2 4 7 6 8 6 3 8 6 13 12 15 6 2 7 6 8 13 13 11 11 8 9 10 13
10 9 8 7 8 10 9 7 7 6 6 5 5 4 4 4 5 4 4 2 2 2 3 5 4 6 8 2 9 7 11 16 7 4 1 5 4 10 14 11 10 9 10 9 10
9 9 8 8 8 9 9 10 9 9 7 6 6 6 4 4 4 5 5 4 3 3 2 4 4 6 10 8 2 15 13 5 6 8 1 4 3 4 10 12 11 9 8 9 8
7 7 7 8 9 9 9 8 8 8 9 9 8 6 5 3 3 4 4 5 5 3 3 2 4 5 1 5 5 11 4 7 8 9 4 6 6 1 4 6 10 12 11 8 6
6 7 7 7 7 7 6 6 6 7 6 8 9 8 7 6 5 3 3 5 7 7 4 5 7 8 12 9 12 9 5 10 9 11 9 8 7 5 6 3 2 9 10 7 6
6 6 6 6 6 5 4 4 4 5 6 6 5 5 4 4 4 4 2 3 5 6 8 9 11 11 11 5 8 11 7 7 6 1 3 6 11 3 4 8 4 2 5 3 4
5 7 7 8 7 7 8 7 5 3 4 5 3 4 1 2 1 2 3 2 3 6 11 11 13 14 16 7 6 11 12 8 10 7 6 7 9 4 1 2 5 3 1 3 4
7 9 8 9 8 9 9 8 7 6 6 7 5 5 5 5 4 2 1 1 1 3 5 12 12 14 12 10 10 17 12 10 11 11 6 7 8 8 5 4 4 9 2 5 6
9 9 11 12 11 11 11 10 9 9 10 10 11 10 10 8 7 7 6 5 4 2 2 8 9 5 7 12 13 19 18 15 12 6 5 5 15 9 7 8 3 8 4 5 4
11 12 12 12 15 16 14 13 12 14 14 15 15 15 14 14 11 9 9 9 8 7 8 10 10 7 7 7 10 17 19 15 13 9 9 17 20 11 12 7 5 6 6 4 17
13 14 15 14 16 15 15 14 16 21 22 20 20 18 17 14 14 13 12 12 14 13 15 12 11 12 13 10 11 11 16 14 14 12 22 26 23 9 13 11 9 11 9 11 16
16 16 15 17 18 17 16 13 19 21 23 24 22 17 19 17 18 18 17 15 16 17 16 16 14 18 16 16 16 14 11 12 17 20 26 21 18 14 4 4 8 9 10 13 13
18 17 18 19 19 18 17 13 19 23 24 25 26 25 26 21 23 25 25 19 21 20 21 20 20 23 20 21 18 17 17 16 17 23 26 24 22 20 12 13 13 12 10 14 16
22 21 23 24 24 24 23 20 23 30 30 30 29 29 29 29 28 28 25 24 25 23 26 26 28 20 25 25 20 19 17 19 19 19 24 25 24 19 22 18 16 17 17 20 25
25 25 24 26 27 28 28 29 31 34 37 36 36 37 36 35 33 33 32 31 27 27 32 30 32 28 29 29 27 25 23 21 22 21 23 25 25 28 27 25 23 19 17 23 26
28 29 28 28 30 32 32 32 32 33 39 43 45 45 44 43 43 41 40 36 36 36 38 34 37 34 32 33 35 31 26 26 26 27 27 30 20 30 36 33 30 27 27 28 27
28 28 29 28 29 31 32 31 32 32 34 42 45 49 51 50 50 49 47 44 44 43 43 45 45 43 37 32 31 38 33 31 29 32 27 28 25 28 32 34 34 32 31 28 23
25 25 27 28 29 29 30 29 31 32 37 40 42 45 50 53 52 51 52 51 50 52 50 51 51 51 47 41 37 38 40 38 38 32 32 24 26 30 34 37 36 34 31 30 29
24 25 26 28 31 34 36 38 39 39 41 43 46 46 52 55 56 54 56 54 53 58 58 56 57 57 57 52 46 43 42 43 41 39 38 33 28 22 31 36 37 36 34 35 35
26 26 29 32 35 38 41 44 45 47 45 48 47 51 52 57 59 56 55 55 54 50 63 64 63 62 62 60 58 55 48 42 42 42 39 37 33 18 36 41 46 45 42 42 38
Wind_Direction
183 184 178 176 165 140 59 31 80 86 92 92 93 83 122 160 135 119 137 132 116 108 70 69 71 75 99 104 74 68 52 43 49 43 46 59 80 86 81 75 82 80 80 95 121
189 188 185 176 175 160 154 176 122 117 116 116 112 102 102 164 164 133 133 139 130 125 96 67 94 119 94 87 86 75 54 45 60 67 61 61 70 91 88 77 77 83 73 85 111
194 192 190 178 180 166 178 192 166 145 134 116 110 105 103 131 161 146 136 148 153 147 135 137 83 12 86 78 104 79 103 64 49 66 73 75 69 74 77 73 81 80 73 76 94
197 195 196 192 187 180 179 182 175 148 134 109 101 95 96 91 151 149 147 153 159 171 166 146 107 147 109 83 109 99 113 101 55 52 66 67 60 64 73 86 87 89 81 76 84
200 203 201 195 188 182 185 182 177 164 144 119 105 96 100 97 91 99 167 158 166 174 187 134 72 311 236 143 94 122 110 74 115 59 68 66 55 40 71 83 90 87 83 86 90
204 208 205 202 196 187 187 187 193 195 183 166 156 144 130 120 117 92 130 172 172 185 214 53 64 264 113 134 118 108 109 119 101 67 69 73 64 58 43 83 80 87 94 92 99
196 205 209 206 198 198 201 211 221 230 232 227 226 223 200 165 158 140 107 133 191 189 190 202 222 240 136 160 128 153 152 176 206 127 144 98 100 92 83 63 84 85 92 106 112
145 173 187 195 188 184 185 186 187 193 194 188 193 209 208 196 197 186 153 122 162 221 232 232 233 184 152 177 187 189 188 209 250 320 101 92 120 109 96 88 78 82 103 104 109
105 118 123 129 135 131 127 123 130 132 130 133 147 174 182 193 193 207 202 177 136 201 236 227 243 170 172 238 152 12 215 240 203 315 101 74 135 116 108 98 99 114 120 113 102
93 105 115 125 131 139 134 125 117 110 112 119 133 136 151 164 181 192 210 204 178 138 199 226 233 181 195 194 98 68 87 98 308 232 275 287 356 121 121 112 116 115 111 106 96
115 114 123 134 139 140 140 137 138 125 108 100 102 111 106 106 132 173 201 190 188 186 180 234 204 233 224 239 148 104 135 58 74 92 55 2 269 14 26 120 121 111 108 110 115
149 143 141 143 144 142 139 142 135 123 115 111 109 98 86 81 78 113 157 177 185 204 175 201 207 213 235 184 154 132 58 50 78 83 69 92 33 111 75 64 84 115 106 115 136
177 184 181 171 163 160 158 152 155 149 145 147 125 117 94 75 69 75 76 165 182 173 202 218 235 246 267 154 146 180 215 80 350 48 148 130 120 144 104 87 107 40 70 77 139
202 198 200 201 199 197 195 186 176 195 191 181 178 175 158 153 86 50 53 77 170 196 203 224 247 260 265 190 186 177 191 198 230 246 172 183 154 135 273 48 21 305 44 299 312
248 236 223 214 211 211 211 212 204 213 239 215 215 214 215 201 197 235 299 283 233 229 228 229 231 238 225 202 199 176 226 256 282 287 233 247 275 215 269 292 32 13 196 10 246
254 253 248 240 236 231 232 232 225 225 216 228 221 219 232 232 234 246 228 236 248 270 221 270 273 270 245 225 202 219 236 255 269 297 301 265 273 209 198 293 331 343 3 256 209
260 253 248 249 249 247 246 248 249 243 233 229 229 226 235 236 232 231 242 238 241 246 243 253 267 263 245 225 219 222 254 260 255 247 163 191 234 244 224 235 273 308 306 312 324
260 256 257 252 252 253 257 257 258 256 254 249 243 244 233 242 245 239 239 239 240 242 249 249 261 268 244 231 231 220 234 253 253 220 205 202 226 232 254 286 278 301 342 338 321
258 256 256 256 255 252 250 247 251 261 268 271 270 247 233 239 243 249 239 238 246 249 246 248 256 257 264 258 251 238 242 232 237 229 223 220 245 258 234 258 289 301 324 308 322
262 262 263 260 263 263 258 244 244 256 263 269 274 274 275 255 251 252 251 233 234 243 250 250 240 257 253 250 254 249 245 238 241 231 236 235 251 250 257 249 261 274 299 301 312
264 264 265 266 266 264 261 247 236 244 248 253 257 264 269 272 269 265 260 247 241 238 244 240 253 241 247 254 248 250 246 249 249 248 254 242 248 245 261 265 278 290 304 307 302
269 269 265 269 268 267 264 257 251 247 256 255 255 255 256 258 260 261 264 267 265 257 254 245 241 230 247 248 251 244 246 249 254 254 255 255 242 234 245 257 269 276 282 283 290
274 274 272 264 261 262 263 264 261 252 252 257 259 259 255 253 257 256 258 254 255 257 262 252 254 246 228 237 247 249 247 248 250 249 250 258 251 233 236 246 250 258 265 273 282
283 280 276 272 269 264 263 261 259 253 249 254 257 259 260 258 254 254 250 245 246 248 251 255 258 260 256 235 238 248 245 248 250 248 250 253 262 251 243 242 244 249 258 269 278
280 281 282 283 281 280 276 274 273 266 262 256 254 256 260 259 257 256 255 248 237 239 238 244 249 254 258 252 237 234 237 236 239 240 244 243 250 255 246 248 253 258 260 268 274
278 279 279 283 285 285 283 279 274 268 267 264 260 253 257 258 258 255 253 252 242 233 232 234 241 246 252 252 247 234 236 242 242 245 238 234 242 253 254 250 252 252 257 261 267
277 278 284 286 286 285 283 282 280 278 269 265 260 262 259 262 263 259 256 255 255 243 230 233 238 242 245 247 250 249 237 232 240 241 245 237 233 243 235 244 250 254 257 262 269
Height
5905 5907 5909 5911 5912 5913 5913 5914 5914 5914 5914 5914 5914 5914 5914 5914 5914 5916 5915 5917 5918 5916 5913 5914 5916 5913 5912 5915 5913 5913 5914 5914 5915 5915 5915 5913 5915 5914 5913 5912 5910 5910 5910 5911 5912
5905 5907 5908 5910 5912 5913 5913 5914 5914 5914 5915 5916 5915 5915 5915 5915 5915 5917 5918 5917 5919 5920 5918 5916 5918 5917 5897 5914 5914 5914 5914 5918 5920 5919 5918 5916 5915 5917 5916 5915 5914 5912 5912 5913 5914
5905 5906 5908 5909 5911 5912 5913 5913 5914 5914 5915 5916 5917 5917 5916 5915 5916 5918 5919 5918 5919 5920 5920 5920 5918 5916 5918 5920 5918 5915 5915 5918 5921 5921 5922 5921 5919 5916 5915 5916 5917 5916 5914 5915 5916
5904 5906 5908 5909 5910 5911 5912 5913 5914 5915 5915 5916 5918 5918 5917 5917 5918 5918 5919 5919 5920 5920 5920 5919 5923 5925 5923 5923 5920 5917 5919 5917 5917 5922 5922 5922 5922 5921 5919 5918 5919 5920 5919 5918 5918
5904 5905 5907 5908 5909 5910 5911 5912 5914 5915 5916 5917 5918 5918 5919 5918 5918 5918 5919 5920 5922 5921 5921 5922 5925 5925 5920 5922 5921 5922 5921 5922 5920 5924 5924 5923 5922 5925 5924 5922 5922 5923 5923 5923 5923
5904 5904 5906 5907 5908 5909 5911 5912 5913 5914 5916 5917 5917 5918 5919 5919 5918 5918 5919 5920 5922 5923 5923 5926 5928 5927 5923 5923 5923 5924 5924 5924 5924 5926 5925 5924 5925 5927 5928 5925 5925 5925 5927 5928 5928
5903 5904 5905 5906 5907 5908 5910 5911 5913 5913 5914 5916 5917 5917 5919 5920 5919 5919 5920 5920 5921 5923 5925 5926 5928 5928 5926 5926 5926 5925 5926 5927 5925 5927 5927 5929 5928 5927 5928 5929 5928 5929 5930 5932 5931
5903 5904 5905 5905 5907 5908 5909 5910 5911 5912 5913 5914 5916 5916 5917 5918 5919 5920 5920 5921 5921 5921 5921 5922 5924 5926 5926 5927 5928 5926 5928 5927 5927 5927 5927 5930 5930 5928 5928 5931 5931 5932 5933 5934 5932
5904 5905 5905 5906 5907 5908 5909 5910 5911 5912 5913 5914 5914 5915 5917 5917 5918 5919 5920 5921 5921 5922 5921 5922 5921 5924 5925 5925 5928 5927 5927 5927 5929 5929 5929 5931 5933 5931 5929 5930 5933 5934 5935 5935 5933
5906 5906 5906 5907 5908 5909 5910 5911 5912 5912 5913 5914 5914 5915 5916 5917 5917 5918 5920 5921 5921 5923 5923 5921 5921 5923 5924 5924 5927 5927 5927 5927 5930 5930 5929 5930 5934 5934 5932 5931 5933 5935 5934 5934 5935
5908 5908 5908 5909 5909 5910 5911 5912 5913 5914 5913 5914 5915 5915 5915 5916 5916 5917 5919 5920 5921 5922 5923 5922 5922 5921 5924 5925 5927 5926 5928 5929 5930 5929 5931 5931 5933 5936 5937 5935 5934 5933 5933 5933 5935
5908 5909 5909 5910 5910 5910 5911 5912 5912 5913 5914 5914 5915 5915 5915 5916 5916 5916 5918 5919 5920 5921 5923 5923 5922 5923 5923 5923 5925 5925 5928 5929 5929 5928 5930 5933 5934 5935 5938 5937 5935 5933 5933 5934 5935
5908 5908 5909 5909 5910 5911 5912 5912 5913 5913 5914 5915 5915 5915 5916 5917 5916 5916 5917 5918 5918 5920 5921 5922 5922 5922 5922 5919 5921 5925 5928 5927 5927 5930 5930 5930 5931 5932 5934 5933 5938 5935 5933 5936 5936
5907 5907 5907 5908 5910 5910 5911 5911 5912 5914 5914 5916 5915 5916 5916 5917 5917 5916 5916 5917 5917 5918 5919 5920 5920 5921 5920 5919 5921 5924 5925 5924 5924 5925 5927 5928 5930 5929 5929 5930 5935 5936 5934 5937 5937
5905 5906 5906 5907 5908 5908 5909 5911 5912 5914 5914 5915 5914 5914 5915 5917 5917 5916 5916 5916 5916 5917 5919 5920 5919 5919 5919 5919 5920 5922 5920 5921 5921 5923 5926 5927 5929 5929 5928 5928 5932 5934 5935 5938 5937
5902 5903 5903 5904 5905 5906 5906 5908 5910 5912 5911 5911 5911 5912 5912 5913 5914 5914 5914 5915 5915 5915 5917 5917 5917 5918 5918 5917 5918 5919 5919 5920 5921 5922 5923 5924 5923 5925 5925 5925 5929 5931 5932 5936 5937
5898 5898 5899 5900 5901 5902 5904 5905 5907 5905 5907 5907 5907 5908 5909 5910 5911 5912 5912 5912 5913 5914 5914 5914 5914 5915 5916 5916 5917 5918 5918 5919 5920 5920 5922 5921 5918 5919 5921 5922 5926 5929 5928 5930 5932
5892 5893 5894 5895 5896 5897 5899 5902 5902 5899 5899 5902 5903 5904 5905 5906 5907 5908 5909 5909 5909 5910 5910 5912 5913 5913 5912 5912 5912 5914 5915 5915 5916 5918 5917 5916 5916 5919 5919 5921 5923 5924 5924 5926 5929
5887 5887 5889 5889 5890 5892 5894 5896 5894 5894 5892 5893 5895 5898 5899 5901 5901 5902 5904 5906 5906 5906 5907 5907 5909 5907 5909 5909 5909 5909 5911 5912 5911 5912 5913 5914 5912 5913 5915 5916 5918 5920 5922 5924 5925
5881 5882 5882 5882 5883 5884 5887 5890 5889 5887 5887 5886 5886 5889 5890 5894 5895 5894 5895 5901 5900 5900 5900 5902 5903 5903 5904 5904 5906 5906 5906 5907 5907 5908 5908 5911 5910 5911 5913 5913 5915 5917 5920 5920 5918
5874 5876 5875 5874 5876 5877 5879 5882 5882 5878 5877 5879 5880 5880 5882 5883 5883 5885 5889 5893 5892 5893 5892 5895 5895 5899 5897 5897 5901 5902 5901 5902 5903 5904 5904 5904 5905 5908 5906 5908 5909 5909 5911 5912 5912
5866 5868 5869 5867 5868 5868 5869 5871 5873 5871 5869 5870 5871 5871 5872 5874 5876 5876 5878 5879 5882 5883 5882 5885 5884 5889 5889 5891 5892 5894 5895 5896 5897 5899 5898 5898 5903 5901 5902 5903 5904 5906 5908 5910 5911
5856 5857 5858 5859 5859 5858 5859 5861 5863 5865 5863 5860 5860 5860 5863 5865 5866 5868 5868 5872 5871 5871 5870 5873 5873 5877 5881 5882 5882 5885 5889 5889 5889 5889 5891 5891 5899 5898 5899 5900 5902 5904 5904 5905 5905
5847 5846 5846 5846 5847 5847 5848 5850 5850 5851 5851 5849 5849 5847 5849 5853 5855 5857 5857 5862 5861 5860 5861 5861 5862 5865 5870 5878 5878 5875 5880 5881 5882 5881 5885 5884 5888 5890 5892 5895 5897 5899 5899 5899 5899
5837 5836 5834 5834 5835 5836 5836 5838 5838 5838 5837 5837 5837 5834 5832 5834 5839 5842 5845 5848 5852 5851 5852 5850 5850 5852 5855 5861 5867 5867 5868 5871 5871 5875 5875 5881 5879 5881 5884 5885 5888 5890 5892 5893 5894
5830 5828 5827 5825 5824 5824 5824 5824 5824 5825 5825 5823 5822 5822 5819 5820 5823 5826 5827 5830 5837 5839 5841 5839 5838 5839 5841 5846 5850 5856 5858 5861 5864 5867 5866 5869 5871 5875 5873 5875 5876 5879 5883 5886 5888
5819 5820 5818 5816 5814 5813 5811 5808 5809 5808 5810 5807 5808 5806 5808 5804 5803 5808 5813 5816 5819 5826 5829 5830 5827 5828 5830 5833 5837 5840 5849 5851 5856 5857 5858 5860 5865 5870 5869 5869 5869 5871 5875 5878 5880